Miscellaneous Local Product
Issued by NWS Hastings, NE

Home | Current Version | Previous Version | Text Only | Print | Product List | Glossary Off
Versions: 1 2 3 4 5 6 7 8 9 10 11 12 13 14 15 16 17 18 19 20 21 22 23 24 25 26 27 28 29 30 31 32 33 34 35 36 37 38 39 40 41 42 43 44 45 46 47 48 49 50

000
AXUS43 KGID 300802
MISGRI

GID CWA HOURLY WEATHER ROUNDUP
NATIONAL WEATHER SERVICE HASTINGS NE
300 AM CDT TUE SEP 30 2014

NOTE: "FAIR" INDICATES FEW OR NO CLOUDS BELOW 12,000 FEET WITH NO
SIGNIFICANT WEATHER AND/OR OBSTRUCTIONS TO VISIBILITY.

...SOUTH CENTRAL NEBRASKA...

CITY           SKY/WX    TMP DP  RH WIND       PRES   REMARKS
GRAND ISLAND   MOCLDY    67  57  70 SE13      29.83F
HASTINGS       CLOUDY    69  54  58 S13G23    29.84F
KEARNEY        CLOUDY    66  55  68 SE15      29.82R
ORD            MOCLDY    66  56  70 SE10      29.78F
YORK           PTCLDY    63  59  88 SE9       29.88F
AURORA         MOCLDY    65  57  75 SE9       29.85F
LEXINGTON      CLOUDY    61  58  89 SE8       29.79S
HOLDREGE       CLOUDY    67  55  66 SE17      29.80S
HEBRON         MOCLDY    66  57  72 SE9       29.87F

...NEBRASKA PANHANDLE...

CITY           SKY/WX    TMP DP  RH WIND       PRES   REMARKS
CHADRON        LGT RAIN  54  53  97 CALM      29.56F
ALLIANCE       LGT RAIN  52  49  89 SW44G56   29.51F
SCOTTSBLUFF    HVY RAIN  51  49  92 W24G35    29.68R FOG
SIDNEY         CLOUDY    50  45  83 W18G29    29.76R

...WESTERN AND NORTH CENTRAL NEBRASKA...

CITY           SKY/WX    TMP DP  RH WIND       PRES   REMARKS
VALENTINE      CLOUDY    60  55  83 SE17      29.71F
AINSWORTH      LGT RAIN  64  56  73 SE15G21   29.75F
ONEILL         CLOUDY    65  59  80 SE15      29.81F
BROKEN BOW     CLOUDY    65  57  75 SE9       29.77F
IMPERIAL       PTCLDY    55  50  83 W14G22    29.78R
NORTH PLATTE   MOCLDY    58  56  93 SE8       29.75F
MCCOOK         CLEAR     61  57  87 S20G29    29.78F

...EASTERN NEBRASKA...

CITY           SKY/WX    TMP DP  RH WIND       PRES   REMARKS
NORFOLK        CLOUDY    62  60  93 E12       29.88F
SO SIOUX CITY  PTCLDY    59  56  89 E7        29.94F
TEKAMAH        CLOUDY    61  59  93 E3        29.93F FOG
COLUMBUS       PTCLDY    61  55  82 E6        29.89F
ALBION         MOCLDY    63  55  77 SE10      29.85F
OMAHA EPPLEY   MOCLDY    64  59  83 E7        29.94F
OFFUTT AFB     PTCLDY    61  61 100 NE8       29.92F
MILLARD        PTCLDY    64  59  82 SE3       29.92F
LINCOLN        PTCLDY    65  58  78 S8        29.90F
NEBRASKA CITY  PTCLDY    62  55  76 S5        29.93F
BEATRICE       MOCLDY    66  58  76 SE7       29.90F
FALLS CITY     PTCLDY    62  58  86 SE5       29.93F

...NORTHERN KANSAS...

CITY           SKY/WX    TMP DP  RH WIND       PRES   REMARKS
GOODLAND       CLEAR     52  47  83 SW8       29.88S
HILL CITY      CLOUDY    65  57  75 S8        29.83F
NORTON         MOSUNNY   63  54  72 SE8       29.80F
PHILLIPSBURG   PTCLDY    70  54  56 SE12      29.82F
SMITH CENTER   MOCLDY    68  55  64 SE16      29.85S
BELOIT         MOCLDY    70  57  64 SE14      29.86S
HAYS           CLOUDY    66  54  63 S13       29.86R
RUSSELL        CLOUDY    67  56  67 S18G24    29.85S
CONCORDIA      MOCLDY    68  59  73 S15G22    29.88F
SALINA         PTCLDY    67  58  72 S9        29.89F
TOPEKA         PTCLDY    64  60  87 CALM      29.94F



USA.gov is the U.S. government's official web portal to all federal, state and local government web resources and services.